Flag for U.S.A. Weather past 2 weeks in Canton, Ohio, U.S.A.

Now
34 °F

Light rain. Fog.


Feels Like: 25 °F
Forecast: 9 / 38 °F
Wind: 14 mph from Southeast

Location: Akron-Canton Regional Airport

Current Time: Feb 1, 2015 at 7:20:01 PM

Latest Report: Feb 1, 2015 at 6:51 PM


Visibility: 1 mi

Pressure: 29.70 "Hg

Humidity: 88%

Dew point: 31 °F

Location of CantonLocation

Historic Weather in Canton — Graph

°F

Canton temperature yesterday

Maximum temperature yesterday: 29 °F (at 11:51 PM)
Minimum temperature yesterday: 4 °F (at 2:51 AM)
Average temperature yesterday: 18 °F

Past Weeks' High & Low Weather Summary

 TemperatureHumidityPressure
High44 °F (Jan 17, 8:51 PM)100% (Jan 28, 9:51 AM)30.46 "Hg (Jan 28, 9:51 AM)
Low4 °F (Jan 31, 2:51 AM)42% (Jan 28, 4:51 PM)29.60 "Hg (Jan 24, 2:51 PM)
Average27 °F77%30.04 "Hg
* Reported Jan 17 5:51 PM — Feb 1 5:51 PM, Canton, Weather by CustomWeather, © 2014

Note: Actual official high and low records may vary slightly from our data, if they occured in-between our weather recording intervals... More about our weather records

Advertising

Canton weather history for previous 24 hours

 ConditionsComfort  
Time TempWeatherWind HumidityBarometerVisibility
5:51 PM
Feb 1
34 °FLight snow. Fog.12 mph88%29.75 "Hg1 mi
4:51 PM34 °FLight snow. Fog.7 mph85%29.81 "Hg1 mi
3:51 PM33 °FLight snow. Fog.13 mph85%29.86 "Hg1 mi
2:51 PM33 °FLight snow. Low clouds.10 mph85%29.90 "Hg2 mi
1:51 PM32 °FSleet. Mostly cloudy.10 mph85%29.93 "Hg2 mi
1:03 PM31 °FSleet. Cloudy.9 mph89%29.94 "Hg1 mi
12:51 PM31 °FLight snow. Mostly cloudy.8 mph89%29.99 "Hg1 mi
11:51 AM31 °FSnow. Ice fog.6 mph89%30.06 "Hg1 mi
10:51 AM30 °FSnow. Ice fog.8 mph89%30.11 "Hg1 mi
9:51 AM30 °FLight snow. Ice fog.7 mph85%30.14 "Hg1 mi
8:51 AM29 °FLight snow. Ice fog.7 mph89%30.16 "Hg1 mi
7:51 AM29 °FLight snow. Ice fog.8 mph85%30.17 "Hg1 mi
6:51 AM28 °FLight snow. Ice fog.6 mph89%30.18 "Hg1 mi
5:51 AM28 °FLight snow. Ice fog.6 mph89%30.19 "Hg1 mi
4:51 AM28 °FLight snow. Ice fog.5 mph89%30.19 "Hg1 mi
3:51 AM28 °FLight snow. Ice fog.5 mph85%30.20 "Hg1 mi
2:51 AM29 °FLight snow. Ice fog.5 mph75%30.21 "Hg2 mi
1:51 AM29 °FOvercast.3 mph69%30.20 "Hg10 mi
12:51 AM28 °FOvercast.6 mph72%30.21 "Hg10 mi
11:51 PM
Jan 31
29 °FOvercast.7 mph69%30.23 "Hg10 mi
10:51 PM28 °FOvercast.9 mph72%30.24 "Hg9 mi
9:51 PM28 °FOvercast.10 mph69%30.25 "Hg9 mi
8:51 PM26 °FPassing clouds.8 mph66%30.26 "Hg10 mi
7:51 PM28 °FMostly cloudy.12 mph64%30.28 "Hg10 mi
Weather by CustomWeather, © 2014

See weather overviewHow to use our weather pages